Regional Weather Roundup
Issued by NWS

Home | Current Version | Previous Version | Graphics & Text | Print | Product List | Glossary On
Versions: 1 2 3 4 5 6 7 8 9 10 11 12 13 14 15 16 17 18 19 20 21 22 23 24 25 26 27 28 29 30 31 32 33 34 35 36 37 38 39 40 41 42 43 44 45 46 47 48 49 50
000
ASUS43 KLSX 281210
RWRMO

WEATHER SUMMARY FOR MISSOURI
NATIONAL WEATHER SERVICE SPRINGFIELD MO
700 AM CDT THU APR 28 2016

NOTE: "FAIR" INDICATES FEW OR NO CLOUDS BELOW 12,000 FEET WITH NO
       SIGNIFICANT WEATHER AND/OR OBSTRUCTIONS TO VISIBILITY.
       CURRENT SKY AND/OR WEATHER CONDITIONS ARE NOT AVAILABLE FOR
       CHILLICOTHE AND FARMINGTON.

MOZ001>031-035>038-043-044-053-054-281300-
...NORTHERN AND WESTERN MISSOURI...

CITY           SKY/WX    TMP DP  RH WIND       PRES   REMARKS
KANSAS CTY INT CLOUDY    47  41  80 W13       29.82R
6HR MIN TEMP:  46; 6HR MAX TEMP:  50;

KANSAS C DTWN  CLOUDY    48  40  73 W8        29.84R
6HR MIN TEMP:  48; 6HR MAX TEMP:  53;

LEE`S SUMMIT   CLOUDY    46  39  76 W13       29.85R
6HR MIN TEMP:  45; 6HR MAX TEMP:  53;

ST JOSEPH      CLOUDY    48  44  86 W16       29.81R
6HR MIN TEMP:  47; 6HR MAX TEMP:  49;

CHILLICOTHE      N/A     49  32  52 VRB5      29.81R
6HR MIN TEMP:  45; 6HR MAX TEMP:  50;

KIRKSVILLE     MOCLDY    48  43  82 W9        29.78R
6HR MIN TEMP:  45; 6HR MAX TEMP:  52;


$$
MOZ066>068-077>081-088>096-101>105-281300-
...SOUTHWEST MISSOURI...

CITY           SKY/WX    TMP DP  RH WIND       PRES   REMARKS
SPRINGFIELD    CLEAR     49  42  77 W9        29.88R
6HR MIN TEMP:  48; 6HR MAX TEMP:  56;

JOPLIN         CLEAR     48  42  80 W7        29.91R
6HR MIN TEMP:  48; 6HR MAX TEMP:  53;

BRANSON        CLEAR     50  45  81 CALM      29.90R

$$
MOZ032>034-039>042-045>050-055>058-069>072-281300-
...CENTRAL MISSOURI...

CITY           SKY/WX    TMP DP  RH WIND       PRES   REMARKS
COLUMBIA       CLEAR     50  44  80 W9        29.81R
6HR MIN TEMP:  50; 6HR MAX TEMP:  56;

JEFFERSON CITY CLEAR     52  45  77 W5        29.83R
6HR MIN TEMP:  52; 6HR MAX TEMP:  59;

ROLLA          CLEAR     49  47  93 SW9       29.82R
6HR MIN TEMP:  46; 6HR MAX TEMP:  55;

SEDALIA        CLEAR     49  41  74 W10       29.84R
6HR MIN TEMP:  49; 6HR MAX TEMP:  56;

WHITEMAN AFB   PTCLDY    46  42  87 W12       29.84R
WARRENSBURG    CLEAR     45  39  81 SW10      29.85R
OSAGE BEACH    CLEAR     50  39  66 SW6       29.85R

$$
MOZ051-052-059>065-281300-
...EAST CENTRAL MISSOURI...

CITY           SKY/WX    TMP DP  RH WIND       PRES   REMARKS
ST LOUIS INTL  PTCLDY    58  51  78 SW3       29.79R
6HR MIN TEMP:  56; 6HR MAX TEMP:  66;

SPIRIT OF STL  CLEAR     52  52 100 CALM      29.79R
6HR MIN TEMP:  50; 6HR MAX TEMP:  63;

ST CHARLES     CLEAR     53  53 100 CALM      29.78R
6HR MIN TEMP:  52; 6HR MAX TEMP:  63;


$$
MOZ072>076-082>087-097>100-106>115-281300-
...SOUTH CENTRAL AND SOUTHEAST MISSOURI...

CITY           SKY/WX    TMP DP  RH WIND       PRES   REMARKS
CAPE GIRARDEAU CLEAR     57  55  93 CALM      29.82R
6HR MIN TEMP:  55; 6HR MAX TEMP:  68; 6HR PCP:  0.01;

FARMINGTON     CLEAR     51  50  96 MISG      29.83R
6HR MIN TEMP:  51; 6HR MAX TEMP:  63;

POPLAR BLUFF   CLEAR     58  55  90 W6        29.84R
6HR MIN TEMP:  55; 6HR MAX TEMP:  67;

WEST PLAINS    CLEAR     50  46  86 W5        29.89R
6HR MIN TEMP:  49; 6HR MAX TEMP:  59;


$$




USA.gov is the U.S. government's official web portal to all federal, state and local government web resources and services.